sat.trackr.live / text

‹ back to catalog

FENGYUN 3E

NORAD 49008 · 2021-062A

PAYLOAD ACTIVE UNKNOWN

§ Identity

Operator
Country
PRC
Launch date
2021-07-04
Launch site
JSC
Launch vehicle
Mass (kg)
RCS (m²)

Purposes: earth_obs

External: N2YO · Heavens-Above · Gunter

§ Orbital elements

Epoch: 2026-09-15T23:06:33.408288Z

Period
101.41 min
Inclination
98.7546°
Eccentricity
0.0001733
Mean motion
14.19910757 rev/d
Perigee alt
824.4 km
Apogee alt
826.9 km
Semi-major
7,203.8 km
B*
-3.4148e-5
RAAN
261.3794°
Arg perigee
147.5069°
Mean anomaly
212.6214°
Rev number
26,946

§ Raw data

FENGYUN 3E1 49008U 21062A   26258.96288667 -.00000116  00000+0 -34148-4 0  99902 49008  98.7546 261.3794 0001733 147.5069 212.6214 14.19910757269469

JSON: /api/v1/satellites/49008 · /tle

For live sub-satellite position, see the globe view (requires WebGL).

§ Visibility from observer

Set your observer location to see the next 7 days of passes ≥ 10°. The values pass through the URL so the page stays shareable.

No JS? Fill the form by hand. The geolocation button needs JavaScript.

§ Radio — SatNOGS DB

ModeDescriptionDownlinkUplink
AHRPT Mode X - AHRPT 7.860 GHz
FM Mode X - DPT dumps (active over China & Sweden) 8.213 GHz
BPSK Telemetry 2.253 GHz
FM telemetry 2.219 GHz

4 transmitters · refreshed weekly from db.satnogs.org